Погода в Клубовке

Украина / Хмельницкая область     50°04′51″N   26°46′42″E
темп.,
°C
ветер,
м/с
пор.,
м/с
влажн.,
%
обл.,
%
осадки,
мм/ч
давл.,
гПа
погр.,
м
20 июня, вс
вс2000:00+17всв229073 0.0 101817
03:00+16св229570 2.2 101727
06:00+17ссв2398100 6.4 101677
09:00+21всв3583100 6.5 1016432
12:00+24всв587126 0.0 10151043
15:00+25в7106381 0.1 10141521
18:00+24в710725 0.1 10131305
21:00+20в4108232 0.1 1013609
21 июня, пн
пн2100:00+17вюв37953 0.0 1014162
03:00+16в37966 0.0 1013143
06:00+16в379556 0.0 1013176
09:00+20вюв4684100 0.0 1013341
12:00+23вюв467634 0.1 1012672
15:00+26юв556395 0.7 10111418
18:00+23юв368143 1.8 1012491
21:00+21юв3690100 1.9 1012122
22 июня, вт
вт2200:00+19юв359199 0.0 101279
03:00+18юв35915 0.0 101284
06:00+17юв35920 0.0 101385
09:00+23юв46781 0.0 1013399
12:00+27юв45620 0.0 10131241
15:00+28юв45571 0.0 10131615
18:00+28вюв33655 0.0 10121620
21:00+24вюв33824 0.1 101329
23 июня, ср
ср2300:00+21вюв33910 0.0 101438
03:00+20вюв22950 0.0 101437
06:00+19ююв11950 0.0 101414
09:00+24вюв228234 0.0 1015358
12:00+27вюв33695 0.0 1015969
15:00+29вюв33613 0.0 10151306
18:00+29вюв226210 0.0 10151282
21:00+24юв33818 0.1 101539
24 июня, чт
чт2400:00+21ю228838 0.0 101611
03:00+20ссв00894 0.0 101611
06:00+20з018932 0.0 101611
09:00+25ссз007672 0.0 1017337
12:00+29ю116221 0.0 10171148
15:00+30зюз1154100 0.9 10171678
18:00+29св336649 0.4 1016431
21:00+24вюв2279100 0.9 101623